| time (UTC) | temp F | wind direction | speed knots | gust knots | rain 1hr in | rain 24hr in | rain mn in | humidity % | barometer mb |
| 20260503203342 | 64 | 246 | 0.0 | 1.7 | 0.00 | 0.00 | 0.00 | 67 | 1019.2 |
| 20260503202814 | 65 | 246 | 0.0 | 1.7 | 0.00 | 0.00 | 0.00 | 65 | 1019.2 |
| 20260503202312 | 66 | 160 | 0.0 | 1.7 | 0.00 | 0.00 | 0.00 | 62 | 1019.1 |
| 20260503201744 | 66 | 153 | 0.9 | 3.5 | 0.00 | 0.00 | 0.00 | 62 | 1019.1 |
| 20260503201217 | 67 | 199 | 0.9 | 3.5 | 0.00 | 0.00 | 0.00 | 60 | 1019.2 |
| 20260503200920 | 67 | 130 | 0.0 | 1.7 | 0.00 | 0.00 | 0.00 | 61 | 1019.2 |
| 20260503200147 | 67 | 131 | 0.9 | 3.5 | 0.00 | 0.00 | 0.00 | 60 | 1019.2 |
| 20260503195648 | 68 | 177 | 0.9 | 4.3 | 0.00 | 0.00 | 0.00 | 59 | 1019.4 |
| 20260503195146 | 68 | 137 | 0.9 | 4.3 | 0.00 | 0.00 | 0.00 | 59 | 1019.4 |
| 20260503194648 | 68 | 125 | 0.9 | 3.5 | 0.00 | 0.00 | 0.00 | 58 | 1019.3 |
| 20260503194145 | 68 | 187 | 0.9 | 3.5 | 0.00 | 0.00 | 0.00 | 59 | 1019.2 |
| 20260503193645 | 69 | 135 | 1.7 | 5.2 | 0.00 | 0.00 | 0.00 | 58 | 1019.3 |
| 20260503193416 | 69 | 263 | 1.7 | 5.2 | 0.00 | 0.00 | 0.00 | 58 | 1019.2 |
| 20260503193125 | 69 | 254 | 1.7 | 5.2 | 0.00 | 0.00 | 0.00 | 57 | 1019.2 |
| 20260503192345 | 69 | 274 | 1.7 | 5.2 | 0.00 | 0.00 | 0.00 | 56 | 1019.1 |
| 20260503191548 | 70 | 172 | 1.7 | 5.2 | 0.00 | 0.00 | 0.00 | 56 | 1019.2 |
| 20260503191022 | 70 | 187 | 1.7 | 5.2 | 0.00 | 0.00 | 0.00 | 55 | 1019.3 |
| 20260503190513 | 70 | 270 | 0.9 | 3.5 | 0.00 | 0.00 | 0.00 | 53 | 1019.4 |
| 20260503190010 | 70 | 253 | 0.9 | 3.5 | 0.00 | 0.00 | 0.00 | 54 | 1019.4 |
| 20260503185507 | 70 | 288 | 1.7 | 4.3 | 0.00 | 0.00 | 0.00 | 53 | 1019.5 |
| 20260503185500 | 70 | 222 | 1.7 | 4.3 | 0.00 | 0.00 | 0.00 | 53 | 1019.6 |
| 20260503184435 | 70 | 289 | 1.7 | 4.3 | 0.00 | 0.00 | 0.00 | 52 | 1019.5 |
| 20260503183928 | 70 | 177 | 0.9 | 3.5 | 0.00 | 0.00 | 0.00 | 51 | 1019.6 |
| 20260503183425 | 70 | 239 | 0.9 | 2.6 | 0.00 | 0.00 | 0.00 | 54 | 1019.7 |
| 20260503182923 | 70 | 23 | 0.9 | 5.2 | 0.00 | 0.00 | 0.00 | 53 | 1019.8 |
| 20260503182417 | 70 | 275 | 0.9 | 5.2 | 0.00 | 0.00 | 0.00 | 52 | 1020.0 |
| 20260503181851 | 69 | 104 | 0.9 | 2.6 | 0.00 | 0.00 | 0.00 | 57 | 1020.0 |
| 20260503181325 | 69 | 103 | 1.7 | 4.3 | 0.00 | 0.00 | 0.00 | 53 | 1020.1 |
| 20260503181026 | 69 | 214 | 2.6 | 7.0 | 0.00 | 0.00 | 0.00 | 52 | 1020.2 |
| 20260503180251 | 69 | 272 | 2.6 | 7.0 | 0.00 | 0.00 | 0.00 | 53 | 1020.3 |
| 20260503180018 | 69 | 291 | 2.6 | 7.0 | 0.00 | 0.00 | 0.00 | 58 | 1020.4 |
| 20260503175222 | 70 | 249 | 3.5 | 7.0 | 0.00 | 0.00 | 0.00 | 54 | 1020.4 |
| 20260503174709 | 70 | 261 | 1.7 | 7.0 | 0.00 | 0.00 | 0.00 | 52 | 1020.5 |
| 20260503174206 | 70 | 293 | 0.9 | 5.2 | 0.00 | 0.00 | 0.00 | 54 | 1020.4 |
| 20260503173641 | 70 | 85 | 1.7 | 3.5 | 0.00 | 0.00 | 0.00 | 54 | 1020.5 |
| 20260503173134 | 70 | 123 | 1.7 | 3.5 | 0.00 | 0.00 | 0.00 | 52 | 1020.5 |
| 20260503172632 | 69 | 33 | 2.6 | 3.5 | 0.00 | 0.00 | 0.00 | 55 | 1020.6 |
| 20260503172357 | 69 | 28 | 2.6 | 5.2 | 0.00 | 0.00 | 0.00 | 53 | 1020.7 |
| 20260503171617 | 69 | 328 | 2.6 | 5.2 | 0.00 | 0.00 | 0.00 | 55 | 1020.7 |
| 20260503171116 | 69 | 320 | 1.7 | 5.2 | 0.00 | 0.00 | 0.00 | 53 | 1020.8 |
| 20260503170549 | 68 | 255 | 2.6 | 5.2 | 0.00 | 0.00 | 0.00 | 55 | 1020.8 |
| 20260503160157 | 66 | 17 | 0.9 | 3.5 | 0.00 | 0.00 | 0.00 | 60 | 1022.0 |
| 20260503151008 | 64 | 187 | 0.0 | 4.3 | 0.00 | 0.00 | 0.00 | 59 | 1022.9 |
| 20260503150505 | 64 | 329 | 0.9 | 3.5 | 0.00 | 0.00 | 0.00 | 64 | 1022.9 |
| 20260503140236 | 61 | 113 | 3.5 | 6.1 | 0.00 | 0.00 | 0.00 | 61 | 1024.4 |
| 20260503131033 | 59 | 136 | 1.7 | 4.3 | 0.00 | 0.00 | 0.00 | 69 | 1024.8 |
| 20260503130739 | 59 | 78 | 1.7 | 5.2 | 0.00 | 0.00 | 0.00 | 70 | 1024.9 |
| 20260503120217 | 52 | 106 | 0.0 | 0.9 | 0.00 | 0.00 | 0.00 | 97 | 1024.9 |
| 20260503110558 | 46 | 264 | 0.0 | 0.9 | 0.00 | 0.00 | 0.00 | 98 | 1024.6 |
| 20260503090130 | 43 | 264 | 0.0 | 0.0 | 0.00 | 0.00 | 0.00 | 95 | 1023.7 |
| 20260503081557 | 45 | 264 | 0.0 | 0.0 | 0.00 | 0.00 | 0.00 | 95 | 1023.6 |
| 20260503081053 | 45 | 264 | 0.0 | 0.0 | 0.00 | 0.00 | 0.00 | 94 | 1023.6 |
| 20260503080821 | 45 | 264 | 0.0 | 0.0 | 0.00 | 0.00 | 0.00 | 94 | 1023.6 |
| 20260503072854 | 46 | 264 | 0.0 | 0.0 | 0.00 | 0.00 | 0.00 | 94 | 1023.5 |
| 20260503072352 | 47 | 264 | 0.0 | 0.0 | 0.00 | 0.00 | 0.00 | 94 | 1023.5 |
| 20260503071850 | 47 | 264 | 0.0 | 0.0 | 0.00 | 0.00 | 0.00 | 94 | 1023.4 |
| 20260503071349 | 47 | 264 | 0.0 | 0.0 | 0.00 | 0.00 | 0.00 | 94 | 1023.5 |
| 20260503070818 | 47 | 264 | 0.0 | 0.0 | 0.00 | 0.00 | 0.00 | 94 | 1023.5 |
| 20260503070246 | 47 | 264 | 0.0 | 0.0 | 0.00 | 0.00 | 0.00 | 94 | 1023.4 |
| 20260503055046 | 51 | 264 | 0.0 | 0.9 | 0.00 | 0.01 | 0.00 | 92 | 1023.8 |
| 20260503054544 | 51 | 264 | 0.0 | 0.0 | 0.00 | 0.02 | 0.00 | 91 | 1023.7 |
| 20260503054043 | 51 | 264 | 0.0 | 1.7 | 0.00 | 0.03 | 0.00 | 91 | 1023.8 |
| 20260503053540 | 52 | 264 | 0.0 | 1.7 | 0.00 | 0.04 | 0.00 | 91 | 1023.7 |
| 20260503053038 | 52 | 264 | 0.0 | 0.9 | 0.00 | 0.04 | 0.00 | 91 | 1023.7 |
| 20260503052538 | 53 | 264 | 0.0 | 0.9 | 0.00 | 0.05 | 0.00 | 92 | 1023.7 |
| 20260503052023 | 53 | 264 | 0.0 | 0.0 | 0.00 | 0.07 | 0.00 | 92 | 1023.7 |
| 20260503051457 | 53 | 264 | 0.0 | 0.0 | 0.00 | 0.09 | 0.00 | 92 | 1023.7 |
| 20260503050932 | 53 | 264 | 0.0 | 0.0 | 0.00 | 0.11 | 0.00 | 92 | 1023.8 |
| 20260503050430 | 54 | 264 | 0.0 | 0.0 | 0.00 | 0.13 | 0.00 | 93 | 1023.7 |
| 20260503045930 | 54 | 264 | 0.0 | 0.0 | 0.00 | 0.15 | 0.00 | 93 | 1023.7 |
| 20260503045430 | 54 | 264 | 0.0 | 0.0 | 0.00 | 0.18 | 0.00 | 93 | 1023.8 |
| 20260503044927 | 54 | 264 | 0.0 | 0.0 | 0.00 | 0.21 | 0.00 | 94 | 1023.8 |
| 20260503044355 | 54 | 264 | 0.0 | 0.0 | 0.00 | 0.23 | 0.00 | 94 | 1023.8 |
| 20260503043826 | 54 | 264 | 0.0 | 0.9 | 0.00 | 0.26 | 0.00 | 94 | 1023.9 |
| 20260503043324 | 55 | 264 | 0.0 | 0.9 | 0.00 | 0.28 | 0.00 | 94 | 1023.9 |
| 20260503042823 | 55 | 264 | 0.0 | 0.0 | 0.00 | 0.30 | 0.00 | 94 | 1023.8 |
| 20260503042322 | 55 | 264 | 0.0 | 0.0 | 0.00 | 0.32 | 0.00 | 94 | 1023.9 |
| 20260503041817 | 55 | 264 | 0.0 | 0.0 | 0.00 | 0.35 | 0.00 | 94 | 1023.8 |
| 20260503041316 | 55 | 264 | 0.0 | 0.0 | 0.00 | 0.36 | 0.00 | 94 | 1023.8 |
| 20260503040749 | 55 | 264 | 0.0 | 0.0 | 0.00 | 0.38 | 0.00 | 94 | 1023.8 |
| 20260503040245 | 55 | 264 | 0.0 | 0.0 | 0.00 | 0.40 | 0.00 | 94 | 1023.9 |
| 20260503035950 | 55 | 264 | 0.0 | 0.0 | 0.00 | 0.41 | 0.00 | 94 | 1023.8 |
| 20260503035157 | 55 | 264 | 0.0 | 0.0 | 0.00 | 0.43 | 0.00 | 93 | 1023.8 |
| 20260503034656 | 55 | 264 | 0.0 | 0.9 | 0.00 | 0.44 | 0.00 | 93 | 1023.8 |
| 20260503034156 | 55 | 264 | 0.0 | 0.9 | 0.00 | 0.47 | 0.00 | 93 | 1023.7 |
| 20260503033646 | 55 | 264 | 0.0 | 0.9 | 0.00 | 0.50 | 0.00 | 92 | 1023.8 |
| 20260503033142 | 55 | 264 | 0.0 | 0.9 | 0.00 | 0.51 | 0.00 | 92 | 1023.8 |
| 20260503032631 | 55 | 264 | 0.0 | 0.0 | 0.00 | 0.54 | 0.00 | 92 | 1023.7 |
| 20260503032116 | 55 | 264 | 0.0 | 0.0 | 0.00 | 0.56 | 0.00 | 92 | 1023.7 |
| 20260503031550 | 55 | 264 | 0.0 | 0.0 | 0.00 | 0.57 | 0.00 | 91 | 1023.6 |
| 20260503031023 | 55 | 264 | 0.0 | 0.0 | 0.00 | 0.58 | 0.00 | 90 | 1023.7 |
| 20260503030524 | 55 | 264 | 0.0 | 1.7 | 0.00 | 0.58 | 0.00 | 90 | 1023.6 |
| 20260503030004 | 55 | 264 | 0.9 | 1.7 | 0.00 | 0.59 | 0.00 | 89 | 1023.6 |
| 20260503025440 | 55 | 234 | 0.9 | 1.7 | 0.00 | 0.60 | 0.59 | 88 | 1023.6 |
| 20260503024937 | 56 | 234 | 0.0 | 1.7 | 0.00 | 0.61 | 0.59 | 87 | 1023.5 |
| 20260503024435 | 56 | 234 | 0.9 | 1.7 | 0.00 | 0.63 | 0.59 | 86 | 1023.5 |
| 20260503023912 | 56 | 234 | 0.9 | 1.7 | 0.00 | 0.67 | 0.59 | 87 | 1023.6 |
| 20260503023347 | 56 | 182 | 0.0 | 1.7 | 0.00 | 0.69 | 0.59 | 86 | 1023.5 |
| 20260503022845 | 56 | 103 | 0.9 | 2.6 | 0.00 | 0.70 | 0.59 | 86 | 1023.5 |
| 20260503022615 | 56 | 182 | 1.7 | 3.5 | 0.00 | 0.70 | 0.59 | 85 | 1023.4 |
| 20260503021834 | 56 | 293 | 1.7 | 3.5 | 0.00 | 0.72 | 0.59 | 85 | 1023.4 |
| 20260503021605 | 56 | 241 | 1.7 | 3.5 | 0.00 | 0.74 | 0.59 | 85 | 1023.3 |
| 20260503020812 | 56 | 258 | 1.7 | 3.5 | 0.00 | 0.76 | 0.59 | 86 | 1023.3 |
| 20260503020309 | 56 | 267 | 0.9 | 3.5 | 0.00 | 0.76 | 0.59 | 87 | 1023.4 |
| 20260503015806 | 56 | 328 | 0.9 | 3.5 | 0.00 | 0.77 | 0.59 | 88 | 1023.2 |
| 20260503015534 | 56 | 254 | 0.9 | 3.5 | 0.00 | 0.77 | 0.59 | 89 | 1023.3 |
| 20260503015019 | 56 | 265 | 0.0 | 2.6 | 0.00 | 0.79 | 0.59 | 91 | 1023.3 |
| 20260503014517 | 56 | 233 | 0.9 | 2.6 | 0.00 | 0.80 | 0.59 | 93 | 1023.1 |
| 20260503013744 | 57 | 243 | 0.9 | 4.3 | 0.00 | 0.80 | 0.59 | 94 | 1023.1 |
| 20260503013245 | 57 | 247 | 0.9 | 4.3 | 0.00 | 0.81 | 0.59 | 95 | 1023.1 |
| 20260503012745 | 57 | 207 | 0.9 | 3.5 | 0.00 | 0.81 | 0.59 | 96 | 1022.9 |
| 20260503012516 | 57 | 103 | 0.0 | 2.6 | 0.00 | 0.83 | 0.59 | 96 | 1022.9 |
| 20260503011718 | 57 | 233 | 0.9 | 2.6 | 0.00 | 0.86 | 0.59 | 96 | 1022.8 |
| 20260503011155 | 57 | 245 | 0.9 | 2.6 | 0.00 | 0.89 | 0.59 | 96 | 1022.6 |
| 20260503010652 | 57 | 252 | 0.0 | 1.7 | 0.00 | 0.94 | 0.59 | 95 | 1022.6 |
| 20260503010152 | 57 | 252 | 0.0 | 0.0 | 0.00 | 1.03 | 0.59 | 94 | 1022.6 |
| 20260503005627 | 57 | 252 | 0.0 | 0.0 | 0.00 | 1.20 | 0.59 | 94 | 1022.6 |
| 20260503005119 | 57 | 252 | 0.0 | 0.0 | 0.00 | 1.36 | 0.59 | 94 | 1022.5 |
| 20260503004615 | 57 | 252 | 0.0 | 0.0 | 0.00 | 1.52 | 0.59 | 94 | 1022.5 |
| 20260503004052 | 58 | 252 | 0.0 | 0.0 | 0.00 | 1.58 | 0.59 | 94 | 1022.3 |
| 20260503003555 | 58 | 252 | 0.0 | 0.0 | 0.00 | 1.72 | 0.59 | 93 | 1022.2 |
| 20260503003052 | 58 | 252 | 0.0 | 0.0 | 0.00 | 1.85 | 0.59 | 94 | 1022.2 |
| 20260503002551 | 58 | 252 | 0.0 | 0.0 | 0.00 | 1.97 | 0.59 | 93 | 1022.1 |
| 20260503002024 | 59 | 252 | 0.0 | 0.0 | 0.00 | 2.06 | 0.59 | 93 | 1021.8 |
| 20260503001515 | 59 | 252 | 0.0 | 0.0 | 0.00 | 2.12 | 0.59 | 93 | 1021.7 |
| 20260503000950 | 59 | 252 | 0.0 | 0.9 | 0.00 | 2.31 | 0.59 | 93 | 1021.7 |
| 20260503000424 | 60 | 252 | 0.0 | 0.9 | 0.00 | 2.31 | 0.59 | 93 | 1021.6 |
| 20260502235917 | 60 | 252 | 0.0 | 0.0 | 0.00 | 2.31 | 0.59 | 93 | 1021.5 |
| 20260502235352 | 60 | 252 | 0.0 | 0.9 | 0.00 | 2.31 | 0.59 | 94 | 1021.5 |
| 20260502234826 | 60 | 252 | 0.9 | 1.7 | 0.00 | 2.32 | 0.59 | 94 | 1021.4 |
| 20260502234300 | 60 | 252 | 0.9 | 1.7 | 0.00 | 2.32 | 0.59 | 94 | 1021.3 |
| 20260502233800 | 60 | 252 | 0.9 | 1.7 | 0.00 | 2.32 | 0.59 | 94 | 1021.1 |
| 20260502233302 | 61 | 252 | 0.0 | 1.7 | 0.00 | 2.32 | 0.59 | 94 | 1021.2 |
| 20260502232758 | 61 | 252 | 0.0 | 0.9 | 0.00 | 2.32 | 0.59 | 94 | 1021.1 |
| 20260502232258 | 61 | 252 | 0.0 | 0.0 | 0.00 | 2.32 | 0.59 | 94 | 1021.1 |
| 20260502231752 | 61 | 252 | 0.0 | 0.9 | 0.00 | 2.32 | 0.59 | 93 | 1021.1 |
| 20260502231253 | 61 | 252 | 0.0 | 0.9 | 0.00 | 2.32 | 0.59 | 92 | 1021.1 |
| 20260502230737 | 61 | 252 | 0.0 | 0.9 | 0.00 | 2.32 | 0.59 | 92 | 1021.0 |
| 20260502230444 | 62 | 252 | 0.0 | 1.7 | 0.00 | 2.32 | 0.59 | 92 | 1021.0 |
| 20260502225643 | 62 | 252 | 0.0 | 1.7 | 0.00 | 2.32 | 0.59 | 92 | 1020.9 |
| 20260502225135 | 62 | 252 | 0.0 | 0.0 | 0.00 | 2.32 | 0.59 | 91 | 1020.8 |
| 20260502224634 | 62 | 252 | 0.0 | 0.0 | 0.00 | 2.32 | 0.59 | 91 | 1020.7 |
| 20260502224106 | 63 | 252 | 0.0 | 0.0 | 0.00 | 2.32 | 0.59 | 91 | 1020.7 |
| 20260502223554 | 63 | 252 | 0.0 | 0.0 | 0.00 | 2.32 | 0.59 | 90 | 1020.6 |
| 20260502223056 | 63 | 252 | 0.0 | 0.0 | 0.00 | 2.32 | 0.59 | 89 | 1020.6 |
| 20260502222527 | 64 | 252 | 0.0 | 0.0 | 0.00 | 2.32 | 0.59 | 89 | 1020.5 |
| 20260502222012 | 64 | 252 | 0.0 | 0.0 | 0.00 | 2.32 | 0.59 | 87 | 1020.5 |
| 20260502221513 | 64 | 252 | 0.0 | 0.0 | 0.00 | 2.32 | 0.59 | 87 | 1020.4 |
| 20260502220946 | 65 | 252 | 0.0 | 0.0 | 0.00 | 2.32 | 0.59 | 87 | 1020.2 |
| 20260502220443 | 65 | 252 | 0.0 | 1.7 | 0.00 | 2.32 | 0.59 | 87 | 1020.3 |
| 20260502215934 | 65 | 252 | 0.0 | 1.7 | 0.00 | 2.32 | 0.59 | 88 | 1020.3 |
| 20260502215432 | 65 | 252 | 0.0 | 1.7 | 0.00 | 2.32 | 0.59 | 87 | 1020.0 |
| 20260502215135 | 65 | 252 | 0.0 | 0.9 | 0.00 | 2.32 | 0.59 | 87 | 1020.1 |
| 20260502214355 | 65 | 252 | 0.0 | 1.7 | 0.00 | 2.32 | 0.59 | 87 | 1020.0 |
| 20260502214100 | 65 | 260 | 0.9 | 3.5 | 0.00 | 2.32 | 0.59 | 87 | 1020.0 |
| 20260502213302 | 65 | 242 | 1.7 | 5.2 | 0.00 | 2.32 | 0.59 | 87 | 1019.9 |
| 20260502213005 | 65 | 232 | 0.9 | 3.5 | 0.00 | 2.32 | 0.59 | 87 | 1019.6 |
| 20260502212837 | 65 | 247 | 1.7 | 5.2 | 0.00 | 2.32 | 0.59 | 88 | 1019.8 |
| 20260502211933 | 66 | 284 | 0.9 | 1.7 | 0.00 | 2.32 | 0.59 | 87 | 1019.6 |
| 20260502211159 | 66 | 284 | 0.0 | 1.7 | 0.00 | 2.32 | 0.59 | 86 | 1019.5 |
| 20260502210657 | 67 | 284 | 0.0 | 1.7 | 0.00 | 2.32 | 0.59 | 85 | 1019.4 |
| 20260502210130 | 67 | 284 | 0.9 | 2.6 | 0.00 | 2.32 | 0.59 | 86 | 1019.3 |
| 20260502205628 | 67 | 248 | 0.9 | 2.6 | 0.00 | 2.32 | 0.59 | 85 | 1019.3 |
| 20260502205100 | 68 | 249 | 0.0 | 0.9 | 0.00 | 2.32 | 0.59 | 85 | 1019.3 |
| 20260502204532 | 68 | 249 | 0.0 | 2.6 | 0.00 | 2.32 | 0.59 | 84 | 1019.2 |
| 20260502204014 | 69 | 249 | 0.9 | 2.6 | 0.00 | 2.32 | 0.59 | 84 | 1019.2 |